Accueil
METAR-TAF:

METAR-TAF

Aéroports :

Comté d'Ocean, New Jersey, États-Unis

latitude: 39-55-39N, longitude: 074-17-33W, altitude: 25 m

Observation

Le bulletin a été fait il y a 44 minutes, à 11:56 UTC
Vent 8 kt de sud-est
Température 21°C
Humidité 94%
Pression 1026 hPa
Visibilité: 11.3 km
Ciel couvert à une hauteur de 600 ft

METAR: KMJX 251156Z AUTO 13008KT 7SM OVC006 21/20 A3031 RMK AO2 SLP270 60032 70033 T02060200 10206 20178 55008

Heure: 08:40 (12:40 UTC)


TAF: absent

Observations et prévisions météorologiques de plus de 4000 aéroports (messages METAR et TAF).

Les stations disponibles sont représentées par des disques jaunes et rouges sur la carte.

Passer la souris dessus pour voir le nom de la station.

Cliquer dessus pour voir les observations et prévisions météorologiques.

Pour changer de carte: cliquez sur les boutons verts avec une croix noire pour zoomer, sur le bouton vert avec un tiret pour effectuer un zoom arrière, ou sur les flèches vertes pour les cartes adjacentes.


METAR-TAF: